[[{"header":{"parameterUnit":"m.s-1","parameterCategory":1,"la1":30.2991,"la2":30.254,"lo1":-89.0895,"lo2":-89.0444,"dy":0.0017,"dx":0.0017,"nx":28,"ny":28,"refTime":"2026-01-03T09:00:00:Z","depth":0,"parameterNumber":2,"parameterNumberName":"U-component_of_WINDS"},"data":[0,0,0,0,0,0,0,0,0,0,0,0,0,0,0,0,0,0,0,0,0,0,0,0,0,0,0,0,0,0,0,0,0,0,0,0,0,0,0,0,0,0,0,0,0,0,0,0,0,0,0,0,0,0,0,0,0,0,-2.5853,-2.5854,0,-2.5933,-2.5934,-2.5934,-2.59,-2.5898,-2.5897,-2.5895,-2.5976,-2.598,-2.5984,0,0,0,0,0,0,0,0,0,0,0,0,0,-2.5672,-2.5676,-2.5853,-2.5854,-2.5855,-2.5933,-2.5934,-2.5935,-2.5901,-2.5898,-2.5896,-2.5894,-2.5975,-2.598,-2.5984,0,0,0,0,0,0,0,0,0,0,0,0,0,-2.5751,-2.5677,-2.5853,-2.5848,-2.5848,-2.5932,-2.5934,-2.5935,-2.5901,-2.5898,-2.5895,-2.5893,-2.5973,-2.5979,-2.5985,-2.608,0,0,-2.6003,-2.6006,0,0,0,0,0,0,0,0,-2.5747,-2.5758,-2.5847,-2.5848,-2.5849,-2.5904,-2.59,-2.5984,-2.5902,-2.5881,-2.5895,-2.5891,-2.5954,-2.5962,-2.5983,-2.6083,-2.6087,-2.6004,-2.6007,-2.601,-2.6012,0,0,0,0,0,0,0,-2.5741,-2.5754,-2.5885,-2.5849,-2.585,-2.5841,-2.5849,-2.5915,-2.5933,-2.5883,-2.588,-2.589,-2.5954,-2.5977,-2.5985,-2.6088,-2.6004,-2.6009,-2.6013,-2.6015,-2.627,-2.6273,0,0,0,0,0,0,-2.5736,-2.575,-2.5882,-2.5887,-2.579,-2.5847,-2.5856,-2.5889,-2.5932,-2.5936,-2.5893,-2.5888,-2.5969,-2.5978,-2.5987,-2.6101,-2.601,-2.6015,-2.6019,-2.6267,-2.6271,-2.6274,0,0,0,0,0,0,-2.5732,-2.5748,-2.5879,-2.5818,-2.5834,-2.5853,-2.5891,-2.5892,-2.5915,-2.594,-2.5943,-2.5913,-2.5967,-2.5979,-2.6057,-2.6104,-2.6018,-2.6024,-2.6263,-2.6268,-2.6273,-2.633,0,0,0,0,0,0,-2.5727,-2.5747,-2.5783,-2.5819,-2.5837,-2.5947,-2.5893,-2.5896,-2.5925,-2.5921,-2.596,-2.5963,-2.5965,-2.6048,-2.6063,-2.611,-2.6028,-2.6259,-2.6265,-2.6271,-2.6324,-2.6336,-2.6346,0,0,0,0,0,-2.5721,-2.5796,-2.5785,-2.5801,-2.5883,-2.595,-2.5961,-2.5961,-2.5929,-2.5966,-2.5982,-2.5962,-2.6096,-2.6057,-2.6073,-2.6123,-2.6256,-2.6264,-2.6271,-2.6319,-2.6333,-2.6346,0,0,0,0,0,0,-2.5765,-2.5801,-2.5789,-2.5878,-2.5911,-2.5944,-2.599,-2.5977,-2.602,-2.6014,-2.6013,-2.6022,-2.6103,-2.612,-2.6076,-2.6216,-2.6171,-2.6182,-2.6202,-2.6216,-2.6227,-2.6222,-2.6033,0,0,0,0,0,-2.5785,-2.5837,-2.5865,-2.5941,-2.5958,-2.5972,-2.6001,-2.5998,-2.6033,-2.6047,-2.6068,-2.6103,-2.6152,-2.6185,-2.6232,-2.6326,-2.6334,-2.6368,-2.6379,-2.6388,-2.6398,-2.6449,-2.6464,-2.6298,-2.6298,-2.6298,0,0,-2.5828,-2.5853,-2.5886,-2.5951,-2.5976,-2.603,-2.5984,-2.6042,-2.6082,-2.6056,-2.6131,-2.6148,-2.6186,-2.6272,-2.6311,-2.6289,-2.6445,-2.6397,-2.6404,-2.6409,-2.6458,-2.6473,-2.6487,-2.6303,-2.6302,-2.6301,0,0,-2.5932,-2.5957,-2.6023,-2.6049,-2.6088,-2.6097,-2.6112,-2.6147,-2.6158,-2.6233,-2.6214,-2.6261,-2.6347,-2.6375,-2.64,-2.6515,-2.6499,-2.653,-2.6589,-2.6639,-2.6652,-2.6664,-2.6705,-2.672,-2.6539,-2.654,-2.654,0,-2.598,-2.606,-2.6058,-2.6119,-2.6148,-2.6126,-2.6193,-2.6219,-2.6271,-2.6292,-2.6266,-2.6373,-2.6397,-2.649,-2.6518,-2.6539,-2.6557,-2.6526,-2.665,-2.6662,-2.6673,-2.6712,-2.6727,-2.6543,-2.6543,-2.6542,-2.6542,0,-2.6117,-2.6172,-2.6221,-2.6272,-2.6306,-2.637,-2.6378,-2.6413,-2.6407,-2.6418,-2.6495,-2.6523,-2.6575,-2.6597,-2.6592,-2.6689,-2.6674,-2.665,-2.6604,-2.6692,-2.6729,-2.6744,-2.6548,-2.6547,-2.6546,-2.6545,0,0,-2.6253,-2.6302,-2.632,-2.6343,-2.6384,-2.6427,-2.6489,-2.654,-2.657,-2.6607,-2.6659,-2.6732,-2.6709,-2.6738,-2.6736,-2.678,-2.6869,-2.675,-2.675,-2.6771,-2.6978,-2.6997,-2.7014,-2.6858,-2.6861,-2.6863,-2.6975,0,-2.636,-2.6469,-2.647,-2.657,-2.6622,-2.6602,-2.6656,-2.6687,-2.6699,-2.6744,-2.6756,-2.6808,-2.6774,-2.6792,-2.6834,-2.6849,-2.6911,-2.6841,-2.6907,-2.6909,-2.6899,-2.7033,-2.7054,-2.7157,-2.6989,-2.6992,-2.6993,0,-2.6501,-2.6543,-2.6648,-2.6682,-2.6703,-2.6752,-2.6799,-2.6842,-2.6877,-2.6883,-2.6915,-2.6906,-2.6969,-2.6921,-2.7009,-2.6961,-2.6988,-2.7,-2.7004,-2.7011,-2.6957,-2.7045,-2.7191,-2.7207,-2.7016,-2.7014,-2.7013,0,-2.659,-2.6672,-2.6746,-2.6766,-2.6807,-2.6842,-2.6861,-2.6892,-2.6923,-2.6964,-2.6984,-2.7032,-2.7058,-2.7095,-2.7099,-2.7064,-2.7187,-2.714,-2.7194,-2.7194,-2.7222,-2.722,-2.7375,-2.7238,-2.7238,-2.7237,-2.7237,0,-2.6711,-2.6777,-2.6787,-2.6832,-2.6905,-2.6904,-2.6976,-2.6992,-2.7021,-2.7069,-2.7054,-2.71,-2.7102,-2.7149,-2.7153,-2.7225,-2.7237,-2.7243,-2.7243,-2.7245,-2.7244,-2.7263,-2.7256,-2.7241,-2.724,-2.724,-2.7239,0,-2.6824,-2.6833,-2.6912,-2.6944,-2.6953,-2.7006,-2.7033,-2.7077,-2.7087,-2.7148,-2.7162,-2.7178,-2.7232,-2.724,-2.7304,-2.7306,-2.7393,-2.7385,-2.7381,-2.738,-2.7434,-2.7429,-2.7607,-2.7631,-2.7478,-2.7479,-2.748,0,-2.6901,-2.6951,-2.6988,-2.7019,-2.704,-2.709,-2.7121,-2.7122,-2.7156,-2.7199,-2.7237,-2.729,-2.7332,-2.742,-2.7437,-2.7486,-2.748,-2.7538,-2.7487,-2.7487,-2.7481,-2.7479,-2.7484,-2.7549,-2.755,-2.7552,-2.7553,0,-2.7037,-2.7039,-2.7084,-2.7131,-2.7169,-2.7206,-2.7241,-2.7267,-2.7273,-2.7311,-2.7366,-2.7399,-2.7464,-2.7517,-2.7564,-2.7584,-2.757,-2.7569,-2.7584,-2.7587,-2.7583,-2.7586,-2.7409,-2.7565,-2.7564,-2.7563,-2.7562,-2.7562,-2.7134,-2.7178,-2.7211,-2.7262,-2.7288,-2.7321,-2.7364,-2.7379,-2.7425,-2.7478,-2.7475,-2.7536,-2.757,-2.7633,-2.7655,-2.7703,-2.7684,-2.7706,-2.7711,-2.7717,-2.7723,-2.7574,-2.7711,-2.7711,-2.7711,-2.7711,-2.771,0,-2.727,-2.729,-2.7337,-2.7387,-2.7427,-2.7409,-2.7447,-2.7482,-2.7536,-2.7568,-2.761,-2.7673,-2.7724,-2.7745,-2.7795,-2.783,-2.7824,-2.7843,-2.7841,-2.7845,-2.7737,-2.7719,-2.7846,-2.7846,-2.7846,-2.7846,-2.7846,-2.7846,-2.7345,-2.7418,-2.7424,-2.751,-2.7529,-2.7589,-2.7612,-2.7642,-2.7668,-2.774,-2.7782,-2.7795,-2.7823,-2.7875,-2.7921,-2.7925,-2.7945,-2.7966,-2.7969,-2.7867,-2.7853,-2.784,-2.7823,-2.797,-2.7971,-2.8073,-2.8074,-2.8075]},{"header":{"parameterUnit":"m.s-1","parameterCategory":1,"la1":30.2991,"la2":30.254,"lo1":-89.0895,"lo2":-89.0444,"dy":0.0017,"dx":0.0017,"nx":28,"ny":28,"refTime":"2026-01-03T09:00:00:Z","depth":0,"parameterNumber":3,"parameterNumberName":"V-component_of_WINDS"},"data":[0,0,0,0,0,0,0,0,0,0,0,0,0,0,0,0,0,0,0,0,0,0,0,0,0,0,0,0,0,0,0,0,0,0,0,0,0,0,0,0,0,0,0,0,0,0,0,0,0,0,0,0,0,0,0,0,0,0,-1.8929,-1.8929,0,-1.8998,-1.8998,-1.8999,-1.8984,-1.8982,-1.8981,-1.898,-1.9047,-1.905,-1.9053,0,0,0,0,0,0,0,0,0,0,0,0,0,-1.878,-1.8783,-1.8929,-1.893,-1.893,-1.8997,-1.8998,-1.8999,-1.8984,-1.8982,-1.8981,-1.8979,-1.9046,-1.905,-1.9053,0,0,0,0,0,0,0,0,0,0,0,0,0,-1.8846,-1.8784,-1.8928,-1.8931,-1.8932,-1.8997,-1.8998,-1.8999,-1.8984,-1.8982,-1.898,-1.8978,-1.9045,-1.9049,-1.9054,-1.912,0,0,-1.9068,-1.907,0,0,0,0,0,0,0,0,-1.8843,-1.8852,-1.893,-1.8931,-1.8932,-1.898,-1.8971,-1.904,-1.8985,-1.8964,-1.898,-1.8977,-1.9026,-1.9032,-1.9049,-1.9124,-1.9126,-1.9068,-1.9071,-1.9073,-1.9074,0,0,0,0,0,0,0,-1.8838,-1.8849,-1.8956,-1.8931,-1.8932,-1.8927,-1.8934,-1.8984,-1.9005,-1.8966,-1.8965,-1.8973,-1.9026,-1.9045,-1.9051,-1.9127,-1.9068,-1.9072,-1.9075,-1.9076,-1.9259,-1.9261,0,0,0,0,0,0,-1.8833,-1.8845,-1.8954,-1.8958,-1.8882,-1.8931,-1.894,-1.8966,-1.9005,-1.9009,-1.8975,-1.8972,-1.9038,-1.9045,-1.9053,-1.9133,-1.9073,-1.9077,-1.9079,-1.9257,-1.9259,-1.9262,0,0,0,0,0,0,-1.883,-1.8843,-1.8951,-1.8901,-1.8915,-1.8936,-1.8966,-1.8969,-1.8987,-1.9012,-1.9015,-1.899,-1.9037,-1.9047,-1.9104,-1.9135,-1.9079,-1.9083,-1.9254,-1.9257,-1.926,-1.9294,0,0,0,0,0,0,-1.8826,-1.8842,-1.8868,-1.8902,-1.8917,-1.9002,-1.8968,-1.8972,-1.8996,-1.8993,-1.9027,-1.903,-1.9036,-1.9097,-1.9108,-1.914,-1.9086,-1.9251,-1.9256,-1.9259,-1.929,-1.9298,-1.9305,0,0,0,0,0,-1.882,-1.8875,-1.887,-1.8883,-1.8951,-1.9004,-1.9012,-1.9019,-1.8998,-1.9024,-1.904,-1.9029,-1.913,-1.9103,-1.9115,-1.915,-1.9249,-1.9254,-1.9259,-1.9287,-1.9297,-1.9305,0,0,0,0,0,0,-1.8843,-1.8879,-1.8874,-1.8941,-1.8969,-1.9001,-1.9034,-1.9029,-1.9063,-1.9059,-1.9064,-1.9072,-1.913,-1.9145,-1.9115,-1.9215,-1.9187,-1.9194,-1.9204,-1.9213,-1.922,-1.9215,-1.909,0,0,0,0,0,-1.8856,-1.8897,-1.8925,-1.8981,-1.8996,-1.9013,-1.9036,-1.9038,-1.9068,-1.9079,-1.9099,-1.9127,-1.9165,-1.9189,-1.9226,-1.9292,-1.9299,-1.9321,-1.9329,-1.9334,-1.9341,-1.9377,-1.9387,-1.9277,-1.9277,-1.9277,0,0,-1.8883,-1.8907,-1.8933,-1.8987,-1.9009,-1.905,-1.9023,-1.9068,-1.9098,-1.9086,-1.9141,-1.9156,-1.9188,-1.925,-1.9278,-1.9264,-1.9373,-1.9341,-1.9345,-1.9349,-1.9383,-1.9393,-1.9402,-1.9281,-1.928,-1.928,0,0,-1.8953,-1.8976,-1.9025,-1.9048,-1.9082,-1.9093,-1.9105,-1.9137,-1.9147,-1.9203,-1.9195,-1.923,-1.9295,-1.9318,-1.9338,-1.9415,-1.9407,-1.9427,-1.9464,-1.9499,-1.9508,-1.9515,-1.9543,-1.9553,-1.9433,-1.9433,-1.9433,0,-1.8981,-1.9044,-1.905,-1.9096,-1.912,-1.9111,-1.916,-1.9182,-1.9226,-1.9242,-1.9226,-1.9308,-1.9328,-1.9395,-1.9414,-1.9431,-1.9443,-1.9423,-1.9506,-1.9514,-1.9521,-1.9547,-1.9558,-1.9435,-1.9435,-1.9435,-1.9434,0,-1.9077,-1.9121,-1.9156,-1.92,-1.9227,-1.9274,-1.9287,-1.9314,-1.9313,-1.9325,-1.9381,-1.9406,-1.9447,-1.9462,-1.9462,-1.9529,-1.952,-1.9505,-1.9476,-1.9534,-1.9558,-1.9569,-1.9438,-1.9437,-1.9437,-1.9436,0,0,-1.9164,-1.9211,-1.9224,-1.9243,-1.928,-1.9313,-1.9359,-1.94,-1.9423,-1.9453,-1.9491,-1.9546,-1.9533,-1.9555,-1.9558,-1.9588,-1.9648,-1.957,-1.957,-1.9583,-1.9722,-1.9733,-1.9745,-1.9642,-1.9644,-1.9645,-1.972,0,-1.9237,-1.932,-1.9327,-1.9401,-1.9441,-1.9433,-1.9473,-1.9499,-1.9511,-1.9545,-1.9558,-1.9597,-1.9576,-1.959,-1.962,-1.9634,-1.9676,-1.9629,-1.9677,-1.9678,-1.967,-1.9758,-1.977,-1.9839,-1.9729,-1.9731,-1.9732,0,-1.9334,-1.9369,-1.9447,-1.9478,-1.9495,-1.9531,-1.9568,-1.9602,-1.9631,-1.9637,-1.9662,-1.966,-1.9706,-1.9675,-1.9738,-1.9706,-1.9726,-1.9736,-1.9739,-1.9744,-1.9709,-1.9765,-1.9861,-1.9871,-1.9747,-1.9746,-1.9745,0,-1.939,-1.9455,-1.951,-1.9527,-1.9565,-1.959,-1.9607,-1.9634,-1.9658,-1.969,-1.9706,-1.9742,-1.9763,-1.979,-1.9798,-1.9775,-1.986,-1.983,-1.9866,-1.9866,-1.9885,-1.9884,-1.9986,-1.9898,-1.9897,-1.9897,-1.9897,0,-1.9471,-1.9519,-1.9536,-1.957,-1.9623,-1.9629,-1.9682,-1.9696,-1.9721,-1.9756,-1.9751,-1.9785,-1.9792,-1.9827,-1.9832,-1.9883,-1.9892,-1.9898,-1.9899,-1.9899,-1.9898,-1.9912,-1.9908,-1.99,-1.9899,-1.9899,-1.9898,0,-1.9542,-1.9556,-1.9615,-1.9646,-1.9655,-1.9693,-1.9718,-1.975,-1.9761,-1.9806,-1.9817,-1.9834,-1.9875,-1.9885,-1.9932,-1.9936,-1.9996,-1.9993,-1.9987,-1.9987,-2.0023,-2.0019,-2.0137,-2.0153,-2.0054,-2.0055,-2.0056,0,-1.9594,-1.9631,-1.9665,-1.969,-1.9708,-1.9746,-1.9771,-1.9778,-1.9804,-1.9839,-1.9867,-1.9907,-1.9939,-2.0003,-2.0019,-2.0056,-2.0053,-2.0091,-2.0058,-2.0057,-2.0053,-2.0051,-2.0055,-2.0098,-2.0099,-2.01,-2.0101,0,-1.9683,-1.9688,-1.9724,-1.9762,-1.9792,-1.9822,-1.9851,-1.9871,-1.9882,-1.991,-1.9952,-1.9977,-2.0026,-2.0066,-2.0102,-2.0117,-2.0111,-2.0111,-2.0121,-2.0122,-2.0117,-2.012,-2.0005,-2.0108,-2.0108,-2.0107,-2.0107,-2.0106,-1.9746,-1.9778,-1.9808,-1.9848,-1.9871,-1.9898,-1.993,-1.9945,-1.998,-2.0021,-2.0023,-2.0068,-2.0095,-2.0143,-2.0161,-2.0196,-2.0184,-2.0199,-2.0203,-2.0206,-2.021,-2.0111,-2.0202,-2.0202,-2.0202,-2.0202,-2.0202,0,-1.9835,-1.9854,-1.9891,-1.9932,-1.9963,-1.9955,-1.9986,-2.0013,-2.0053,-2.0079,-2.0111,-2.0159,-2.0197,-2.0216,-2.0253,-2.0277,-2.0275,-2.0286,-2.0285,-2.0289,-2.0218,-2.0206,-2.0288,-2.0288,-2.0288,-2.0288,-2.0288,-2.0288,-1.9886,-1.994,-1.9948,-2.0013,-2.0031,-2.0076,-2.0095,-2.0119,-2.014,-2.0194,-2.0226,-2.0238,-2.0261,-2.03,-2.0334,-2.0338,-2.0352,-2.0366,-2.0368,-2.0302,-2.0294,-2.0285,-2.0274,-2.0369,-2.0369,-2.0436,-2.0437,-2.0437]}]]